Location: *
(49.7115°N, 15.0136°E)
Time: 11:13:57
(UTC+00:00)

STARLINK-1034 - Pass Details

Date: 27 February 2020
Orbit: 549 x 550 km, 53.0° (Epoch: 09 April)

Event Time Altitude Azimuth Distance (km) Brightness Sun altitude
Rises 17:33:13 0° 250° (WSW) 2,713 8.8 -9.7°
Reaches altitude 10° 17:35:27 10° 252° (WSW) 1,822 7.6 -10.0°
Maximum altitude 17:39:35 81° 339° (NNW) 562 3.7 -10.7°
Enters shadow 17:43:05 14° 67° (ENE) 1,567 5.4 -11.3°
